H1 CPF 2 NER 2023 7 10 9 191 01 glonass106 H2 0705201 9106 32275 2023 7 10 0 0 0 2023 7 13 23 45 0 900 1 1 0 0 0 1 H9 10 0 60135 0.00000 0 -4066382.290 -21592285.860 -12957541.500 10 0 60135 900.00000 0 -3405007.951 -19951691.841 -15525594.986 10 0 60135 1800.00000 0 -2463478.173 -18114282.848 -17792114.520 10 0 60135 2700.00000 0 -1234474.121 -16145251.255 -19713137.521 10 0 60135 3600.00000 0 276271.151 -14111872.307 -21251421.540 10 0 60135 4500.00000 0 2049967.725 -12080767.846 -22377160.924 10 0 60135 5400.00000 0 4055316.915 -10115217.508 -23068558.701 10 0 60135 6300.00000 0 6249590.297 -8272629.134 -23312243.399 10 0 60135 7200.00000 0 8580195.429 -6602273.111 -23103523.419 10 0 60135 8100.00000 0 10986663.919 -5143374.086 -22446474.622 10 0 60135 9000.00000 0 13402980.060 -3923638.496 -21353859.733 10 0 60135 9900.00000 0 15760154.048 -2958278.152 -19846881.218 10 0 60135 10800.00000 0 17988933.701 -2249569.468 -17954772.194 10 0 60135 11700.00000 0 20022542.651 -1786965.710 -15714232.912 10 0 60135 12600.00000 0 21799331.645 -1547756.650 -13168723.139 10 0 60135 13500.00000 0 23265232.990 -1498247.168 -10367623.573 10 0 60135 14400.00000 0 24375916.029 -1595404.729 -7365281.885 10 0 60135 15300.00000 0 25098553.727 -1788905.863 -4219961.471 10 0 60135 16200.00000 0 25413126.462 -2023495.013 -992712.958 10 0 60135 17100.00000 0 25313208.275 -2241555.794 2253809.774 10 0 60135 18000.00000 0 24806202.425 -2385785.595 5456565.975 10 0 60135 18900.00000 0 23913016.141 -2401859.993 8553352.977 10 0 60135 19800.00000 0 22667188.007 -2240973.679 11484015.653 10 0 60135 20700.00000 0 21113504.422 -1862149.772 14191616.487 10 0 60135 21600.00000 0 19306163.057 -1234219.070 16623543.262 10 0 60135 22500.00000 0 17306560.207 -337384.710 18732532.652 10 0 60135 23400.00000 0 15180794.665 835694.875 20477589.697 10 0 60135 24300.00000 0 12996992.526 2279351.482 21824785.373 10 0 60135 25200.00000 0 10822564.633 3974905.800 22747916.882 10 0 60135 26100.00000 0 8721511.096 5891220.582 23229017.973 10 0 60135 27000.00000 0 6751885.121 7985786.513 23258709.577 10 0 60135 27900.00000 0 4963521.609 10206296.637 22836383.987 10 0 60135 28800.00000 0 3396124.866 12492644.694 21970218.999 10 0 60135 29700.00000 0 2077794.623 14779264.924 20677021.554 10 0 60135 30600.00000 0 1024051.268 16997716.455 18981903.629 10 0 60135 31500.00000 0 237400.276 19079404.919 16917796.314 10 0 60135 32400.00000 0 -292546.795 20958327.934 14524811.104 10 0 60135 33300.00000 0 -588400.756 22573729.855 11849460.476 10 0 60135 34200.00000 0 -683801.907 23872554.598 8943752.690 10 0 60135 35100.00000 0 -621757.099 24811593.716 5864178.366 10 0 60135 36000.00000 0 -452577.934 25359239.458 2670608.685 10 0 60135 36900.00000 0 -231508.252 25496769.093 -574872.929 10 0 60135 37800.00000 0 -16142.285 25219106.537 -3809182.424 10 0 60135 38700.00000 0 136256.288 24535029.374 -6969465.815 10 0 60135 39600.00000 0 171419.997 23466812.839 -9994324.334 10 0 60135 40500.00000 0 40614.305 22049326.097 -12825009.685 10 0 60135 41400.00000 0 -297062.565 20328619.221 -15406565.763 10 0 60135 42300.00000 0 -872714.503 18360060.667 -17688894.466 10 0 60135 43200.00000 0 -1706100.496 16206103.670 -19627725.037 10 0 60135 44100.00000 0 -2804571.381 13933775.342 -21185468.468 10 0 60135 45000.00000 0 -4162535.534 11611993.456 -22331940.986 10 0 60135 45900.00000 0 -5761476.439 9308822.727 -23044943.313 10 0 60135 46800.00000 0 -7570522.000 7088784.474 -23310685.257 10 0 60135 47700.00000 0 -9547542.467 5010331.008 -23124048.121 10 0 60135 48600.00000 0 -11640731.919 3123588.907 -22488680.436 10 0 60135 49500.00000 0 -13790608.217 1468463.921 -21416925.491 10 0 60135 50400.00000 0 -15932348.943 73185.237 -19929582.175 10 0 60135 51300.00000 0 -17998366.860 -1046651.567 -18055503.581 10 0 60135 52200.00000 0 -19921018.398 -1888504.156 -15831040.753 10 0 60135 53100.00000 0 -21635332.846 -2462749.259 -13299341.793 10 0 60135 54000.00000 0 -23081648.878 -2792001.279 -10509519.312 10 0 60135 54900.00000 0 -24208048.559 -2909913.127 -7515701.726 10 0 60135 55800.00000 0 -24972487.091 -2859510.357 -4375986.337 10 0 60135 56700.00000 0 -25344529.042 -2691129.344 -1151314.157 10 0 60135 57600.00000 0 -25306617.989 -2460046.926 2095711.836 10 0 60135 58500.00000 0 -24854825.936 -2223902.101 5302041.990 10 0 60135 59400.00000 0 -23999050.610 -2040019.214 8405405.024 10 0 60135 60300.00000 0 -22762651.859 -1962746.330 11345518.748 10 0 60135 61200.00000 0 -21181541.975 -2040921.974 14065262.558 10 0 60135 62100.00000 0 -19302767.681 -2315578.002 16511788.662 10 0 60135 63000.00000 0 -17182642.855 -2817976.418 18637550.248 10 0 60135 63900.00000 0 -14884509.849 -3568063.918 20401226.478 10 0 60135 64800.00000 0 -12476222.797 -4573410.271 21768526.420 10 0 60135 65700.00000 0 -10027457.690 -5828676.341 22712856.385 10 0 60135 66600.00000 0 -7606961.257 -7315635.264 23215837.882 10 0 60135 67500.00000 0 -5279852.956 -9003747.111 23267666.274 10 0 60135 68400.00000 0 -3105092.118 -10851264.132 22867303.257 10 0 60135 69300.00000 0 -1133215.273 -12806821.458 22022499.373 10 0 60135 70200.00000 0 595562.631 -14811447.670 20749645.974 10 0 60135 71100.00000 0 2052804.643 -16800912.003 19073459.207 10 0 60135 72000.00000 0 3222805.833 -18708310.586 17026501.803 10 0 60135 72900.00000 0 4103005.950 -20466783.877 14648551.569 10 0 60135 73800.00000 0 4703844.404 -22012251.685 11985828.492 10 0 60135 74700.00000 0 5048064.760 -23286051.059 9090095.287 10 0 60135 75600.00000 0 5169499.094 -24237366.226 6017648.804 10 0 60135 76500.00000 0 5111384.607 -24825348.245 2828222.050 10 0 60135 77400.00000 0 4924284.694 -25020834.987 -416181.421 10 0 60135 78300.00000 0 4663703.481 -24807598.835 -3652497.572 10 0 60135 79200.00000 0 4387495.768 -24183069.474 -6817832.238 10 0 60135 80100.00000 0 4153183.016 -23158501.291 -9850687.160 10 0 60135 81000.00000 0 4015289.793 -21758578.419 -12692157.285 10 0 60135 81900.00000 0 4022814.082 -20020474.207 -15287075.677 10 0 60135 82800.00000 0 4216938.957 -17992404.792 -17585083.559 10 0 60135 83700.00000 0 4629082.695 -15731737.640 -19541604.836 10 0 60135 84600.00000 0 5279369.844 -13302734.278 -21118706.522 10 0 60135 85500.00000 0 6175587.947 -10774021.560 -22285828.951 10 0 60136 0.00000 0 7312673.915 -8215896.930 -23020372.291 10 0 60136 900.00000 0 8672752.635 -5697578.060 -23308129.098 10 0 60136 1800.00000 0 10225725.079 -3284514.091 -23143554.352 10 0 60136 2700.00000 0 11930383.889 -1035864.737 -22529869.648 10 0 60136 3600.00000 0 13736009.069 997745.641 -21478998.796 10 0 60136 4500.00000 0 15584378.426 2776108.200 -20011336.646 10 0 60136 5400.00000 0 17412109.545 4270866.874 -18155355.391 10 0 60136 6300.00000 0 19153236.259 5466454.136 -15947055.570 10 0 60136 7200.00000 0 20741912.611 6360487.474 -13429271.889 10 0 60136 8100.00000 0 22115131.811 6963611.080 -10650846.706 10 0 60136 9000.00000 0 23215346.706 7298790.441 -7665686.575 10 0 60136 9900.00000 0 23992882.106 7400090.215 -4531719.706 10 0 60136 10800.00000 0 24408037.695 7310987.550 -1309774.180 10 0 60136 11700.00000 0 24432792.958 7082292.466 1937601.453 10 0 60136 12600.00000 0 24052042.039 6769763.593 5147352.256 10 0 60136 13500.00000 0 23264306.030 6431520.432 8257141.910 10 0 60136 14400.00000 0 22081892.096 6125361.980 11206564.576 10 0 60136 15300.00000 0 20530492.013 5906105.614 13938319.731 10 0 60136 16200.00000 0 18648236.286 5823059.214 16399326.853 10 0 60136 17100.00000 0 16484242.815 5917733.992 18541758.122 10 0 60136 18000.00000 0 14096720.300 6221895.214 20323968.917 10 0 60136 18900.00000 0 11550705.131 6756033.815 21711308.079 10 0 60136 19800.00000 0 8915525.778 7528324.108 22676792.305 10 0 60136 20700.00000 0 6262099.957 8534112.355 23201631.703 10 0 60136 21600.00000 0 3660176.754 9755958.638 23275596.473 10 0 60136 22500.00000 0 1175637.974 11164231.293 22897217.644 10 0 60136 23400.00000 0 -1132029.407 12718229.892 22073817.968 10 0 60136 24300.00000 0 -3211985.126 14367790.651 20821372.207 10 0 60136 25200.00000 0 -5023918.719 16055307.725 19164199.231 10 0 60136 26100.00000 0 -6539486.028 17718086.305 17134491.577 10 0 60136 27000.00000 0 -7743240.037 19290929.254 14771691.197 10 0 60136 27900.00000 0 -8633018.058 20708848.983 12121723.170 10 0 60136 28800.00000 0 -9219770.067 21909790.638 9236102.057 10 0 60136 29700.00000 0 -9526836.553 22837251.995 6170928.202 10 0 60136 30600.00000 0 -9588707.448 23442689.509 2985793.622 10 0 60136 31500.00000 0 -9449315.657 23687608.836 -257380.860 10 0 60136 32400.00000 0 -9159938.442 23545251.362 -3495554.082 10 0 60136 33300.00000 0 -8776796.517 23001805.317 -6665794.517 10 0 60136 34200.00000 0 -8358453.443 22057090.180 -9706507.117 10 0 60136 35100.00000 0 -7963126.268 20724685.363 -12558632.617 10 0 60136 36000.00000 0 -7646021.897 19031497.663 -15166795.563 10 0 60136 36900.00000 0 -7456812.373 17016785.598 -17480378.561 10 0 60136 37800.00000 0 -7437356.047 14730681.543 -19454501.956 10 0 60136 38700.00000 0 -7619760.985 12232273.415 -21050890.276 10 0 60136 39600.00000 0 -8024872.331 9587325.950 -22238609.168 10 0 60136 40500.00000 0 -8661247.265 6865736.270 -22994659.273 10 0 60136 41400.00000 0 -9524660.732 4138829.208 -23304416.272 10 0 60136 42300.00000 0 -10598162.787 1476604.203 -23161909.325 10 0 60136 43200.00000 0 -11852685.443 -1054952.745 -22569933.089 10 0 60136 44100.00000 0 -13248173.994 -3396381.492 -21539991.526 10 0 60136 45000.00000 0 -14735195.999 -5496981.349 -20092074.701 10 0 60136 45900.00000 0 -16256961.235 -7316674.311 -18254272.789 10 0 60136 46800.00000 0 -17751668.733 -8827421.689 -16062234.372 10 0 60136 47700.00000 0 -19155083.291 -10014136.345 -13558479.009 10 0 60136 48600.00000 0 -20403234.026 -10875053.617 -10791576.817 10 0 60136 49500.00000 0 -21435122.221 -11421546.473 -7815210.326 10 0 60136 50400.00000 0 -22195324.966 -11677393.535 -4687136.340 10 0 60136 51300.00000 0 -22636385.191 -11677531.509 -1468067.589 10 0 60136 52200.00000 0 -22720887.315 -11466345.166 1779504.340 10 0 60136 53100.00000 0 -22423130.720 -11095567.510 4992521.861 10 0 60136 54000.00000 0 -21730329.968 -10621879.231 8108586.326 10 0 60136 54900.00000 0 -20643290.442 -10104309.258 11067171.014 10 0 60136 55800.00000 0 -19176530.145 -9601546.693 13810798.232 10 0 60136 56700.00000 0 -17357841.556 -9169278.113 16286157.385 10 0 60136 57600.00000 0 -15227311.029 -8857663.159 18445142.122 10 0 60136 58500.00000 0 -12835835.906 -8709055.452 20245786.242 10 0 60136 59400.00000 0 -10243200.556 -8756065.456 21653080.227 10 0 60136 60300.00000 0 -7515790.903 -9020047.501 22639652.632 10 0 60136 61200.00000 0 -4724042.092 -9510075.221 23186303.232 10 0 60136 62100.00000 0 -1939724.961 -10222449.190 23282377.721 10 0 60136 63000.00000 0 766816.390 -11140758.117 22925976.756 10 0 60136 63900.00000 0 3329361.575 -12236491.736 22123995.261 10 0 60136 64800.00000 0 5688333.872 -13470180.358 20891991.065 10 0 60136 65700.00000 0 7793038.937 -14793013.870 19253885.152 10 0 60136 66600.00000 0 9603529.660 -16148872.708 17241498.976 10 0 60136 67500.00000 0 11092020.182 -17476685.872 14893937.467 10 0 60136 68400.00000 0 12243790.825 -18713017.058 12256829.314 10 0 60136 69300.00000 0 13057546.994 -19794770.092 9381439.127 10 0 60136 70200.00000 0 13545218.038 -20661899.597 6323668.622 10 0 60136 71100.00000 0 13731205.671 -21260012.339 3142966.406 10 0 60136 72000.00000 0 13651114.741 -21542749.110 -98832.088 10 0 60136 72900.00000 0 13350021.118 -21473846.183 -3338711.415 10 0 60136 73800.00000 0 12880350.978 -21028788.869 -6513705.640 10 0 60136 74700.00000 0 12299462.233 -20195986.946 -9562125.929 10 0 60136 75600.00000 0 11667031.298 -18977422.023 -12424761.792 10 0 60136 76500.00000 0 11042356.468 -17388739.244 -15046032.192 10 0 60136 77400.00000 0 10481692.435 -15458779.173 -17375063.925 10 0 60136 78300.00000 0 10035728.848 -13228569.292 -19366676.391 10 0 60136 79200.00000 0 9747319.410 -10749817.064 -20982253.989 10 0 60136 80100.00000 0 9649557.144 -8082967.248 -22190489.703 10 0 60136 81000.00000 0 9764276.674 -5294904.110 -22967986.220 10 0 60136 81900.00000 0 10101046.221 -2456393.642 -23299703.672 10 0 60136 82800.00000 0 10656691.470 360628.545 -23179246.058 10 0 60136 83700.00000 0 11415371.141 3085811.860 -22608981.396 10 0 60136 84600.00000 0 12349201.142 5653074.590 -21599993.676 10 0 60136 85500.00000 0 13419401.319 8003106.665 -20171867.663 10 0 60137 0.00000 0 14577916.963 10085588.429 -18352310.793 10 0 60137 900.00000 0 15769448.184 11861035.461 -16176618.075 10 0 60137 1800.00000 0 16933800.951 13302191.123 -13686992.410 10 0 60137 2700.00000 0 18008463.648 14394913.585 -10931729.622 10 0 60137 3600.00000 0 18931299.790 15138518.455 -7964285.787 10 0 60137 4500.00000 0 19643244.465 15545564.730 -4842243.533 10 0 60137 5400.00000 0 20090891.003 15641093.626 -1626197.161 10 0 60137 6300.00000 0 20228858.739 15461352.953 1621421.984 10 0 60137 7200.00000 0 20021841.662 15052061.279 4837557.041 10 0 60137 8100.00000 0 19446251.020 14466285.537 7959750.419 10 0 60137 9000.00000 0 18491381.793 13762022.023 10927357.782 10 0 60137 9900.00000 0 17160052.982 12999583.265 13682727.338 10 0 60137 10800.00000 0 15468693.642 12238901.411 16172321.247 10 0 60137 11700.00000 0 13446869.941 11536862.272 18347757.144 10 0 60137 12600.00000 0 11136271.908 10944782.816 20166749.433 10 0 60137 13500.00000 0 8589201.213 10506138.741 21593932.057 10 0 60137 14400.00000 0 5866622.110 10254638.172 22601546.860 10 0 60137 15300.00000 0 3035855.960 10212722.889 23169984.290 10 0 60137 16200.00000 0 168014.525 10390560.447 23288166.093 10 0 60137 17100.00000 0 -2664721.932 10785569.928 22953762.625 10 0 60137 18000.00000 0 -5391869.172 11382501.624 22173240.542 10 0 60137 18900.00000 0 -7947331.834 12154067.677 20961739.794 10 0 60137 19800.00000 0 -10271913.221 13062097.558 19342782.031 10 0 60137 20700.00000 0 -12315538.124 14059170.094 17347815.738 10 0 60137 21600.00000 0 -14039096.676 15090653.640 15015606.556 10 0 60137 22500.00000 0 -15415832.983 16097068.614 12391484.244 10 0 60137 23400.00000 0 -16432221.213 17016672.803 9526460.728 10 0 60137 24300.00000 0 -17088293.299 17788160.227 6476236.273 10 0 60137 25200.00000 0 -17397405.497 18353359.332 3300113.220 10 0 60137 26100.00000 0 -17385454.633 18659816.060 59838.778 10 0 60137 27000.00000 0 -17089578.206 18663152.169 -3181600.120 10 0 60137 27900.00000 0 -16556394.286 18329098.550 -6361205.856 10 0 60137 28800.00000 0 -15839856.628 17635117.075 -9417198.437 10 0 60137 29700.00000 0 -14998816.594 16571541.989 -12290218.636 10 0 60137 30600.00000 0 -14094395.681 15142192.223 -14924482.124 10 0 60137 31500.00000 0 -13187280.257 13364428.380 -17268861.941 10 0 60137 32400.00000 0 -12335053.014 11268651.584 -19277878.314 10 0 60137 33300.00000 0 -11589673.750 8897264.753 -20912576.970 10 0 60137 34200.00000 0 -10995215.452 6303139.279 -22141279.372 10 0 60137 35100.00000 0 -10585950.596 3547650.609 -22940191.071 10 0 60137 36000.00000 0 -10384867.613 698363.904 -23293857.144 10 0 60137 36900.00000 0 -10402679.314 -2173534.681 -23195456.590 10 0 60137 37800.00000 0 -10637364.379 -4995955.243 -22646930.628 10 0 60137 38700.00000 0 -11074260.755 -7698658.110 -21658942.770 10 0 60137 39600.00000 0 -11686706.826 -10215931.288 -20250671.642 10 0 60137 40500.00000 0 -12437203.392 -12489081.352 -18449440.420 10 0 60137 41400.00000 0 -13279047.794 -14468635.425 -16290189.758 10 0 60137 42300.00000 0 -14158371.808 -16116163.722 -13814803.914 10 0 60137 43200.00000 0 -15016497.961 -17405647.748 -11071302.552 10 0 60137 44100.00000 0 -15792515.432 -18324337.990 -8112913.279 10 0 60137 45000.00000 0 -16425967.291 -18873066.030 -4997042.430 10 0 60137 45900.00000 0 -16859535.909 -19065998.706 -1784163.680 10 0 60137 46800.00000 0 -17041613.157 -18929845.266 1463354.148 10 0 60137 47700.00000 0 -16928646.607 -18502551.311 4682457.297 10 0 60137 48600.00000 0 -16487162.184 -17831534.969 7810631.694 10 0 60137 49500.00000 0 -15695377.112 -16971539.963 10787117.934 10 0 60137 50400.00000 0 -14544334.203 -15982196.410 13554092.710 10 0 60137 51300.00000 0 -13038508.556 -14925392.478 16057793.474 10 0 60137 52200.00000 0 -11195859.903 -13862567.911 18249564.287 10 0 60137 53100.00000 0 -9047327.116 -12852043.712 20086802.391 10 0 60137 54000.00000 0 -6635784.733 -11946500.569 21533787.143 10 0 60137 54900.00000 0 -4014503.900 -11190712.275 22562375.296 10 0 60137 55800.00000 0 -1245180.815 -10619629.566 23152549.220 10 0 60137 56700.00000 0 1604386.182 -10256894.963 23292807.587 10 0 60137 57600.00000 0 4462875.149 -10113851.101 22980390.958 10 0 60137 58500.00000 0 7258168.191 -10189084.225 22221337.888 10 0 60137 59400.00000 0 9920115.507 -10468522.087 21030370.302 10 0 60137 60300.00000 0 12383221.507 -10926082.188 19430610.079 10 0 60137 61200.00000 0 14589141.683 -11524843.110 17453132.004 10 0 60137 62100.00000 0 16488886.763 -12218689.612 15136361.387 10 0 60137 63000.00000 0 18044642.683 -12954362.126 12525327.687 10 0 60137 63900.00000 0 19231130.885 -13673824.028 9670788.416 10 0 60137 64800.00000 0 20036452.634 -14316846.453 6628240.286 10 0 60137 65700.00000 0 20462382.687 -14823701.080 3456836.914 10 0 60137 66600.00000 0 20524100.847 -15137846.488 218234.521 10 0 60137 67500.00000 0 20249373.627 -15208493.909 -3024611.465 10 0 60137 68400.00000 0 19677221.545 -14992943.190 -6208674.861 10 0 60137 69300.00000 0 18856129.275 -14458589.552 -9272087.666 10 0 60137 70200.00000 0 17841875.129 -13584515.667 -12155345.010 10 0 60137 71100.00000 0 16695072.311 -12362601.292 -14802462.252 10 0 60137 72000.00000 0 15478526.327 -10798103.053 -17162061.467 10 0 60137 72900.00000 0 14254520.352 -8909679.479 -19188366.284 10 0 60137 73800.00000 0 13082143.032 -6728859.616 -20842086.062 10 0 60137 74700.00000 0 12014771.024 -4298976.921 -22091172.729 10 0 60137 75600.00000 0 11097811.690 -1673612.352 -22911436.331 10 0 60137 76500.00000 0 10366800.108 1085389.178 -23287008.115 10 0 60137 77400.00000 0 9845929.520 3910247.154 -23210642.891 10 0 60137 78300.00000 0 9547076.040 6729822.736 -22683855.455 10 0 60137 79200.00000 0 9469357.746 9472338.918 -21716888.800 10 0 60137 80100.00000 0 9599245.997 12068131.606 -20328514.953 10 0 60137 81000.00000 0 9911223.813 14452318.483 -18545672.158 10 0 60137 81900.00000 0 10368963.378 16567275.793 -16402945.136 10 0 60137 82800.00000 0 10926973.102 18364821.023 -13941898.016 10 0 60137 83700.00000 0 11532644.950 19808011.467 -11210272.279 10 0 60137 84600.00000 0 12128615.998 20872484.468 -8261064.669 10 0 60137 85500.00000 0 12655344.760 21547283.982 -5151502.482 10 0 60138 0.00000 0 13053793.643 21835139.465 -1941936.015 10 0 60138 900.00000 0 13268104.378 21752185.912 1305332.271 10 0 60138 1800.00000 0 13248152.649 21327136.925 4527254.826 10 0 60138 2700.00000 0 12951874.276 20599946.405 7661264.496 10 0 60138 3600.00000 0 12347263.392 19620014.973 10646490.123 10 0 60138 4500.00000 0 11413957.644 18444017.077 13424940.038 10 0 60138 5400.00000 0 10144342.396 17133440.460 15942629.905 10 0 60138 6300.00000 0 8544126.178 15751941.652 18150632.839 10 0 60138 7200.00000 0 6632361.843 14362628.952 20006031.224 10 0 60138 8100.00000 0 4440911.095 13025387.177 21472751.778 10 0 60138 9000.00000 0 2013373.408 11794356.609 22522267.703 10 0 60138 9900.00000 0 -596477.236 10715671.976 23134154.400 10 0 60138 10800.00000 0 -3326683.827 9825556.258 23296488.093 10 0 60138 11700.00000 0 -6109444.140 9148849.105 23006079.662 10 0 60138 12600.00000 0 -8873698.518 8698031.433 22268539.134 10 0 60138 13500.00000 0 -11547860.715 8472786.857 21098169.427 10 0 60138 14400.00000 0 -14062578.871 8460118.142 19517691.122 10 0 60138 15300.00000 0 -16353412.139 8635013.438 17557803.275 10 0 60138 16200.00000 0 -18363311.886 8961634.015 15256588.418 10 0 60138 17100.00000 0 -20044804.340 9394973.066 12658772.920 10 0 60138 18000.00000 0 -21361783.827 9882915.279 9814856.876 10 0 60138 18900.00000 0 -22290841.947 10368609.712 6780130.330 10 0 60138 19800.00000 0 -22822077.492 10793055.182 3613595.057 10 0 60138 20700.00000 0 -22959353.644 11097788.168 376813.220 10 0 60138 21600.00000 0 -22719992.367 11227558.817 -2867294.216 10 0 60138 22500.00000 0 -22133919.669 11132881.055 -6055675.334 10 0 60138 23400.00000 0 -21242298.595 10772348.159 -9126376.814 10 0 60138 24300.00000 0 -20095708.486 10114615.151 -12019750.661 10 0 60138 25200.00000 0 -18751948.008 9139963.562 -14679614.216 10 0 60138 26100.00000 0 -17273555.244 7841381.914 -17054340.631 10 0 60138 27000.00000 0 -15725149.692 6225115.781 -19097858.652 10 0 60138 27900.00000 0 -14170708.190 4310663.679 -20770542.611 10 0 60138 28800.00000 0 -12670889.141 2130218.331 -22039975.839 10 0 60138 29700.00000 0 -11280516.971 -272424.036 -22881573.393 10 0 60138 30600.00000 0 -10046331.639 -2843441.573 -23279052.797 10 0 60138 31500.00000 0 -9005096.649 -5520986.924 -23224744.391 10 0 60138 32400.00000 0 -8182143.817 -8237527.260 -22719735.886 10 0 60138 33300.00000 0 -7590414.657 -10922427.916 -21773848.774 10 0 60138 34200.00000 0 -7230037.586 -13504673.271 -20405447.192 10 0 60138 35100.00000 0 -7088457.743 -15915612.818 -18641082.910 10 0 60138 36000.00000 0 -7141113.290 -18091619.299 -16514982.975 10 0 60138 36900.00000 0 -7352629.267 -19976549.131 -14068389.496 10 0 60138 37800.00000 0 -7678478.483 -21523903.513 -11348763.792 10 0 60138 38700.00000 0 -8067039.335 -22698600.690 -8408869.732 10 0 60138 39600.00000 0 -8461963.735 -23478285.883 -5305753.557 10 0 60138 40500.00000 0 -8804755.117 -23854124.477 -2099639.612 10 0 60138 41400.00000 0 -9037447.561 -23831045.542 1147236.842 10 0 60138 42300.00000 0 -9105272.521 -23427425.667 4371837.032 10 0 60138 43200.00000 0 -8959200.050 -22674226.557 7511542.774 10 0 60138 44100.00000 0 -8558246.491 -21613622.755 10505373.260 10 0 60138 45000.00000 0 -7871450.358 -20297177.272 13295170.597 10 0 60138 45900.00000 0 -6879431.981 -18783641.935 15826730.806 10 0 60138 46800.00000 0 -5575470.004 -17136474.942 18050858.144 10 0 60138 47700.00000 0 -3966048.091 -15421179.957 19924322.099 10 0 60138 48600.00000 0 -2070847.448 -13702578.459 21410698.509 10 0 60138 49500.00000 0 77816.001 -12042129.655 22481078.539 10 0 60138 50400.00000 0 2436087.676 -10495410.218 23114631.828 10 0 60138 51300.00000 0 4950159.228 -9109859.192 23299013.036 10 0 60138 52200.00000 0 7558277.388 -7922882.216 23030603.932 10 0 60138 53100.00000 0 10193094.150 -6960394.114 22314586.272 10 0 60138 54000.00000 0 12784261.288 -6235860.434 21164843.931 10 0 60138 54900.00000 0 15261161.919 -5749877.633 19603695.875 10 0 60138 55800.00000 0 17555665.796 -5490308.980 17661464.846 10 0 60138 56700.00000 0 19604793.879 -5432969.860 15375889.717 10 0 60138 57600.00000 0 21353181.220 -5542833.058 12791392.585 10 0 60138 58500.00000 0 22755235.420 -5775702.549 9958214.605 10 0 60138 59400.00000 0 23776900.505 -6080284.507 6931437.278 10 0 60138 60300.00000 0 24396952.506 -6400567.284 3769908.294 10 0 60138 61200.00000 0 24607772.655 -6678408.942 535093.194 10 0 60138 62100.00000 0 24415566.132 -6856222.020 -2710124.347 10 0 60138 63000.00000 0 23840017.711 -6879641.067 -5902669.685 10 0 60138 63900.00000 0 22913399.439 -6700059.190 -8980507.248 10 0 60138 64800.00000 0 21679168.648 -6276925.529 -11883848.946 10 0 60138 65700.00000 0 20190115.995 -5579705.778 -14556317.021 10 0 60138 66600.00000 0 18506142.136 -4589422.299 -16946038.438 10 0 60138 67500.00000 0 16691756.956 -3299708.261 -19006649.580 10 0 60138 68400.00000 0 14813406.663 -1717330.810 -20698192.041 10 0 60138 69300.00000 0 12936740.871 137839.338 -21987882.575 10 0 60138 70200.00000 0 11123933.903 2233411.272 -22850742.987 10 0 60138 71100.00000 0 9431171.815 4525586.602 -23270078.499 10 0 60138 72000.00000 0 7906409.438 6960755.857 -23237796.031 10 0 60138 72900.00000 0 6587490.118 9477512.941 -22754556.892 10 0 60138 73800.00000 0 5500705.564 12009004.723 -21829761.326 10 0 60138 74700.00000 0 4659854.816 14485518.978 -20481365.431 10 0 60138 75600.00000 0 4065840.512 16837204.026 -18735533.908 10 0 60138 76500.00000 0 3706818.309 18996807.821 -16626135.109 10 0 60138 77400.00000 0 3558892.324 20902323.276 -14194087.674 10 0 60138 78300.00000 0 3587326.665 22499430.298 -11486570.891 10 0 60138 79200.00000 0 3748221.615 23743633.168 -8556113.471 10 0 60138 80100.00000 0 3990583.465 24602004.370 -5459577.956 10 0 60138 81000.00000 0 4258700.455 25054462.149 -2257060.043 10 0 60138 81900.00000 0 4494724.213 25094528.395 989276.016 10 0 60138 82800.00000 0 4641347.323 24729535.089 4216403.344 10 0 60138 83700.00000 0 4644463.462 23980270.602 7361656.188 10 0 60138 84600.00000 0 4455697.056 22880080.610 10363947.524 10 0 60138 85500.00000 0 4034694.890 21473461.301 13164956.545 99